Location: Date Creek
(34.2167°N, 113.0301°W)
Time: 19:12:04
(UTC-07:00)

N. Korean satellite - Visible Passes

Search period start: 17 January 2018 00:00
Search period end: 27 January 2018 00:00
Orbit: 459 x 515 km, 97.2° (Epoch: 17 January)

Date Brightness Start Highest point End Pass type
(mag) Time Alt. Az. Time Alt. Az. Time Alt. Az.
17 Jan 7.1 18:08:56 10° SE 18:12:20 38° ENE 18:15:41 10° N visible
18 Jan 9.5 19:19:26 10° SW 19:22:09 20° W 19:24:52 10° NW visible
19 Jan 8.2 06:49:22 10° NNE 06:52:36 37° E 06:55:49 10° SSE visible
19 Jan 8.0 18:54:59 10° S 18:58:26 42° W 19:01:52 10° NNW visible
20 Jan 9.7 06:26:27 10° NE 06:28:51 18° E 06:31:14 10° SE visible
20 Jan 6.5 18:31:10 10° SSE 18:34:47 84° ENE 18:38:21 10° N visible
22 Jan 9.4 19:18:17 10° SW 19:21:00 20° W 19:23:42 10° NW visible
23 Jan 8.3 06:48:11 10° NNE 06:51:24 36° E 06:54:38 10° SSE visible
23 Jan 7.9 18:53:51 10° S 18:57:16 42° W 19:00:39 10° NNW visible
24 Jan 9.7 06:25:17 10° NE 06:27:39 17° E 06:30:01 10° SE visible
24 Jan 6.5 18:30:02 10° SSE 18:33:36 82° ENE 18:37:08 10° N visible
26 Jan 9.4 19:17:05 10° SW 19:19:47 20° W 19:22:29 10° NW visible
